Location: Sungai Kamana Besar
(2.6333°N, 113.4333°E)
Time: 17:53:33
(UTC+00:00)

BREEZE-M TANK - Visible Passes

Search period start: 06 October 2022 00:00
Search period end: 16 October 2022 00:00
Orbit: 564 x 24721 km, 45.2° (Epoch: 05 October)

Date Brightness Start Highest point End Pass type
(mag) Time Alt. Az. Time Alt. Az. Time Alt. Az.
06 Oct 6.5 11:52:58 10° W 12:03:03 15° WNW 12:08:02 10° NW visible
06 Oct 6.5 19:47:48 19° NNW 19:59:58 63° ENE 00:30:01 10° SE visible
07 Oct 7.2 17:33:27 10° NE 17:40:40 14° ENE 17:57:19 10° E visible
09 Oct 6.5 20:20:00 19° NW 20:33:52 84° NE 01:48:24 10° SE visible
10 Oct 6.8 18:05:40 22° NE 18:12:39 28° ENE 19:30:42 10° SE visible
12 Oct 6.6 20:52:13 16° NW 21:09:46 77° SW 02:50:12 10° SE visible
13 Oct 6.2 10:16:36 10° WSW 10:49:03 29° WNW 10:56:29 10° N visible
13 Oct 6.4 18:37:54 36° NNE 18:44:26 46° ENE 21:39:18 10° SE visible
